Location: La Comballaz
(46.3780°N, 7.0817°E)
Time: 09:33:02
(UTC+00:00)

Cosmos 1726 - Visible Passes

Search period start: 13 August 2020 00:00
Search period end: 23 August 2020 00:00
Orbit: 481 x 500 km, 82.5° (Epoch: 12 August)

Date Brightness Start Highest point End Pass type
(mag) Time Alt. Az. Time Alt. Az. Time Alt. Az.
13 Aug 3.8 01:24:39 25° E 01:24:56 25° E 01:28:00 10° NNE visible
13 Aug 3.5 02:59:10 20° W 03:00:06 22° WNW 03:03:02 10° NNW visible
14 Aug 4.4 01:02:15 18° E 01:02:15 18° E 01:04:42 10° NE visible
14 Aug 3.0 02:36:45 31° W 02:37:10 32° WNW 02:40:29 10° N visible
15 Aug 4.9 00:39:49 12° E 00:39:49 12° E 00:40:57 10° ENE visible
15 Aug 2.4 02:14:19 48° WNW 02:14:19 48° WNW 02:17:49 10° N visible
16 Aug 2.3 01:51:52 62° NNW 01:51:52 62° NNW 01:55:02 10° N visible
17 Aug 3.0 01:29:24 47° NNE 01:29:24 47° NNE 01:32:10 10° NNE visible
18 Aug 3.8 01:06:55 31° NE 01:06:55 31° NE 01:09:12 10° NNE visible
18 Aug 4.3 02:41:25 14° WNW 02:41:25 14° WNW 02:43:07 10° NW visible
19 Aug 4.4 00:44:25 21° NE 00:44:25 21° NE 00:46:07 10° NNE visible
19 Aug 4.0 02:18:55 18° NW 02:18:55 18° NW 02:20:53 10° NNW visible
20 Aug 4.9 00:21:54 15° NE 00:21:54 15° NE 00:22:53 10° NE visible
20 Aug 3.9 01:56:24 23° NW 01:56:24 23° NW 01:58:23 10° NNW visible
21 Aug 3.9 01:33:52 25° NNW 01:33:52 25° NNW 01:35:45 10° N visible
22 Aug 4.2 01:11:20 25° N 01:11:20 25° N 01:12:59 10° N visible
